69.5°F
Current conditions from King Hill
Updated every 5 minutes
 
  Friday August 29, 2014

Station Historical Data
Daily Summary for March 7, 2012 Units:  English    Metric   Both
« Previous Day
Next Day »
Daily Weekly Monthly Yearly Custom
  High: Low: Average:
Temperature: 53.8 °F 31.5 °F 43.7 °F
Dew Point: 30.3 °F 11.6 °F 22.9 °F
Humidity: 51% 36% 44%
Wind Speed: 15.0mph 3.0mph 9.3mph
Wind Gust: 33.0mph - -
Wind- - SSW
Pressure: 30.39 in 30.04 in -
Precipitation: 0.00 in    
Historical Graphs
 
 
Tabular Data for March 7, 2012
Time Temperature Dew Point Pressure Wind Wind Speed Wind Gust Humidity Daily Rainfall
00:05 31.5 °F 11.6 °F 30.39 in SSW 7.0 mph 12.0 mph 43% 0.00 in
00:10 31.5 °F 11.6 °F 30.39 in SSW 8.0 mph 14.0 mph 43% 0.00 in
00:15 31.6 °F 12.2 °F 30.38 in SSW 7.0 mph 14.0 mph 44% 0.00 in
00:20 31.7 °F 12.3 °F 30.38 in South 3.0 mph 13.0 mph 44% 0.00 in
00:25 31.9 °F 11.9 °F 30.38 in SSW 5.0 mph 15.0 mph 43% 0.00 in
00:30 32.0 °F 12.0 °F 30.38 in SSW 6.0 mph 15.0 mph 43% 0.00 in
00:35 32.1 °F 12.1 °F 30.38 in South 5.0 mph 15.0 mph 43% 0.00 in
00:40 32.2 °F 12.2 °F 30.38 in SSW 7.0 mph 15.0 mph 43% 0.00 in
00:50 32.4 °F 12.4 °F 30.38 in SSW 6.0 mph 15.0 mph 43% 0.00 in
00:55 32.5 °F 12.5 °F 30.38 in SW 7.0 mph 16.0 mph 43% 0.00 in
01:00 32.7 °F 12.7 °F 30.38 in SSW 9.0 mph 20.0 mph 43% 0.00 in
01:05 32.8 °F 12.7 °F 30.38 in SSW 7.0 mph 20.0 mph 43% 0.00 in
01:10 32.8 °F 12.7 °F 30.38 in SSW 5.0 mph 16.0 mph 43% 0.00 in
01:15 32.7 °F 13.2 °F 30.38 in SSW 7.0 mph 16.0 mph 44% 0.00 in
01:20 32.6 °F 13.1 °F 30.38 in SSW 6.0 mph 14.0 mph 44% 0.00 in
01:30 32.5 °F 13.0 °F 30.38 in SSW 7.0 mph 12.0 mph 44% 0.00 in
01:35 32.6 °F 13.1 °F 30.38 in SSW 6.0 mph 15.0 mph 44% 0.00 in
01:40 32.7 °F 13.2 °F 30.38 in SSW 7.0 mph 15.0 mph 44% 0.00 in
01:45 32.9 °F 13.4 °F 30.37 in SSW 6.0 mph 14.0 mph 44% 0.00 in
01:50 32.9 °F 13.4 °F 30.37 in SSW 8.0 mph 15.0 mph 44% 0.00 in
01:55 32.9 °F 13.4 °F 30.37 in SSW 10.0 mph 22.0 mph 44% 0.00 in
02:05 33.0 °F 13.5 °F 30.37 in SSW 11.0 mph 22.0 mph 44% 0.00 in
02:10 33.2 °F 13.6 °F 30.36 in SSW 12.0 mph 21.0 mph 44% 0.00 in
02:15 33.2 °F 13.6 °F 30.36 in SSW 8.0 mph 23.0 mph 44% 0.00 in
02:20 33.1 °F 14.1 °F 30.36 in SW 8.0 mph 23.0 mph 45% 0.00 in
02:25 33.1 °F 14.1 °F 30.36 in SSW 8.0 mph 19.0 mph 45% 0.00 in
02:30 33.1 °F 14.1 °F 30.35 in SSW 9.0 mph 20.0 mph 45% 0.00 in
02:35 33.0 °F 14.0 °F 30.35 in SSW 10.0 mph 20.0 mph 45% 0.00 in
02:40 32.9 °F 13.9 °F 30.34 in SSW 8.0 mph 21.0 mph 45% 0.00 in
02:45 32.9 °F 14.4 °F 30.34 in SSW 11.0 mph 21.0 mph 46% 0.00 in
02:50 33.0 °F 14.5 °F 30.34 in SSW 10.0 mph 21.0 mph 46% 0.00 in
02:55 33.0 °F 14.5 °F 30.33 in SSW 11.0 mph 21.0 mph 46% 0.00 in
03:00 33.0 °F 14.5 °F 30.33 in SSW 10.0 mph 22.0 mph 46% 0.00 in
03:05 32.9 °F 14.4 °F 30.34 in SSW 8.0 mph 22.0 mph 46% 0.00 in
03:10 32.8 °F 14.3 °F 30.34 in SSW 7.0 mph 20.0 mph 46% 0.00 in
03:15 32.8 °F 14.3 °F 30.34 in SSW 7.0 mph 17.0 mph 46% 0.00 in
03:20 32.9 °F 14.4 °F 30.34 in SSW 8.0 mph 19.0 mph 46% 0.00 in
03:25 32.9 °F 14.4 °F 30.34 in SSW 9.0 mph 19.0 mph 46% 0.00 in
03:30 33.1 °F 14.1 °F 30.34 in SSW 11.0 mph 21.0 mph 45% 0.00 in
03:35 33.1 °F 14.1 °F 30.33 in SSW 8.0 mph 21.0 mph 45% 0.00 in
03:45 33.1 °F 14.6 °F 30.33 in SSW 6.0 mph 18.0 mph 46% 0.00 in
03:50 33.2 °F 14.7 °F 30.33 in SSW 8.0 mph 17.0 mph 46% 0.00 in
03:55 33.2 °F 15.1 °F 30.33 in SSW 8.0 mph 17.0 mph 47% 0.00 in
04:00 33.3 °F 14.7 °F 30.32 in South 7.0 mph 17.0 mph 46% 0.00 in
04:05 33.4 °F 15.3 °F 30.32 in SSW 5.0 mph 15.0 mph 47% 0.00 in
04:10 33.5 °F 15.4 °F 30.32 in SSW 6.0 mph 15.0 mph 47% 0.00 in
04:15 33.8 °F 15.7 °F 30.32 in SSW 5.0 mph 18.0 mph 47% 0.00 in
04:20 33.8 °F 15.7 °F 30.32 in SSW 5.0 mph 18.0 mph 47% 0.00 in
04:25 33.8 °F 15.7 °F 30.31 in South 8.0 mph 15.0 mph 47% 0.00 in
04:30 33.9 °F 15.8 °F 30.31 in SSW 7.0 mph 16.0 mph 47% 0.00 in
04:35 34.1 °F 16.0 °F 30.31 in SSW 8.0 mph 17.0 mph 47% 0.00 in
04:40 34.1 °F 16.0 °F 30.31 in SSW 9.0 mph 18.0 mph 47% 0.00 in
04:45 34.1 °F 16.5 °F 30.31 in SSW 6.0 mph 18.0 mph 48% 0.00 in
04:50 34.1 °F 16.0 °F 30.31 in SSW 10.0 mph 23.0 mph 47% 0.00 in
04:55 34.3 °F 16.6 °F 30.30 in SSW 13.0 mph 23.0 mph 48% 0.00 in
05:00 34.4 °F 16.7 °F 30.31 in SSW 9.0 mph 22.0 mph 48% 0.00 in
05:05 34.4 °F 16.7 °F 30.30 in SSW 13.0 mph 22.0 mph 48% 0.00 in
05:10 34.4 °F 16.7 °F 30.30 in SSW 10.0 mph 22.0 mph 48% 0.00 in
05:15 34.4 °F 16.7 °F 30.30 in SSW 14.0 mph 24.0 mph 48% 0.00 in
05:20 34.4 °F 16.7 °F 30.30 in SSW 9.0 mph 24.0 mph 48% 0.00 in
05:25 34.4 °F 17.2 °F 30.30 in SSW 11.0 mph 27.0 mph 49% 0.00 in
05:30 34.4 °F 16.7 °F 30.30 in SSW 12.0 mph 27.0 mph 48% 0.00 in
05:35 34.4 °F 16.7 °F 30.29 in SSW 12.0 mph 22.0 mph 48% 0.00 in
05:40 34.4 °F 16.7 °F 30.29 in SSW 14.0 mph 23.0 mph 48% 0.00 in
05:50 34.5 °F 17.3 °F 30.29 in SSW 9.0 mph 25.0 mph 49% 0.00 in
06:00 34.6 °F 17.4 °F 30.28 in SSW 11.0 mph 26.0 mph 49% 0.00 in
06:05 34.6 °F 17.4 °F 30.28 in SSW 11.0 mph 26.0 mph 49% 0.00 in
06:10 34.7 °F 17.5 °F 30.28 in SSW 14.0 mph 24.0 mph 49% 0.00 in
06:15 34.8 °F 18.0 °F 30.28 in SSW 10.0 mph 24.0 mph 50% 0.00 in
06:20 34.8 °F 18.0 °F 30.28 in SSW 10.0 mph 24.0 mph 50% 0.00 in
06:25 34.8 °F 18.0 °F 30.28 in SSW 12.0 mph 24.0 mph 50% 0.00 in
06:30 34.8 °F 18.0 °F 30.28 in SSW 11.0 mph 26.0 mph 50% 0.00 in
06:35 34.9 °F 18.1 °F 30.27 in SSW 13.0 mph 26.0 mph 50% 0.00 in
06:45 35.0 °F 18.2 °F 30.27 in SSW 12.0 mph 24.0 mph 50% 0.00 in
06:50 35.1 °F 18.3 °F 30.27 in SSW 12.0 mph 24.0 mph 50% 0.00 in
06:55 35.2 °F 18.4 °F 30.27 in SSW 12.0 mph 24.0 mph 50% 0.00 in
07:00 35.2 °F 18.9 °F 30.26 in SSW 12.0 mph 24.0 mph 51% 0.00 in
07:05 35.3 °F 19.0 °F 30.26 in SSW 12.0 mph 23.0 mph 51% 0.00 in
07:10 35.4 °F 19.1 °F 30.26 in SSW 9.0 mph 22.0 mph 51% 0.00 in
07:15 35.5 °F 19.2 °F 30.26 in SSW 9.0 mph 21.0 mph 51% 0.00 in
07:20 35.7 °F 19.3 °F 30.26 in SSW 12.0 mph 27.0 mph 51% 0.00 in
07:25 35.7 °F 19.3 °F 30.26 in SW 11.0 mph 27.0 mph 51% 0.00 in
07:30 35.9 °F 19.5 °F 30.26 in SSW 11.0 mph 24.0 mph 51% 0.00 in
07:40 36.2 °F 19.8 °F 30.26 in SSW 13.0 mph 23.0 mph 51% 0.00 in
07:45 36.2 °F 19.8 °F 30.26 in SSW 8.0 mph 22.0 mph 51% 0.00 in
07:50 36.3 °F 19.9 °F 30.25 in SSW 10.0 mph 20.0 mph 51% 0.00 in
07:55 36.5 °F 19.6 °F 30.25 in SSW 11.0 mph 23.0 mph 50% 0.00 in
08:00 36.8 °F 20.4 °F 30.25 in SW 10.0 mph 24.0 mph 51% 0.00 in
08:05 36.9 °F 20.0 °F 30.25 in SSW 12.0 mph 25.0 mph 50% 0.00 in
08:10 37.2 °F 20.3 °F 30.25 in SSW 11.0 mph 25.0 mph 50% 0.00 in
08:20 38.2 °F 21.2 °F 30.25 in SSW 13.0 mph 25.0 mph 50% 0.00 in
08:30 38.7 °F 21.2 °F 30.25 in SSW 11.0 mph 21.0 mph 49% 0.00 in
08:35 38.9 °F 21.4 °F 30.25 in SSW 14.0 mph 24.0 mph 49% 0.00 in
08:40 39.3 °F 21.7 °F 30.25 in SSW 10.0 mph 24.0 mph 49% 0.00 in
08:45 39.7 °F 21.6 °F 30.24 in SSW 12.0 mph 22.0 mph 48% 0.00 in
08:55 40.2 °F 21.6 °F 30.24 in SSW 12.0 mph 24.0 mph 47% 0.00 in
09:00 40.5 °F 21.9 °F 30.24 in SSW 12.0 mph 25.0 mph 47% 0.00 in
09:05 40.7 °F 22.0 °F 30.24 in SSW 14.0 mph 26.0 mph 47% 0.00 in
09:10 40.9 °F 21.7 °F 30.24 in SSW 13.0 mph 26.0 mph 46% 0.00 in
09:15 41.1 °F 21.9 °F 30.24 in SSW 14.0 mph 33.0 mph 46% 0.00 in
09:20 41.3 °F 22.1 °F 30.24 in SSW 15.0 mph 33.0 mph 46% 0.00 in
09:25 41.5 °F 22.3 °F 30.23 in SSW 14.0 mph 25.0 mph 46% 0.00 in
09:30 41.7 °F 22.4 °F 30.24 in SSW 13.0 mph 23.0 mph 46% 0.00 in
09:40 42.0 °F 22.2 °F 30.23 in SSW 13.0 mph 23.0 mph 45% 0.00 in
09:50 42.4 °F 22.6 °F 30.23 in SSW 12.0 mph 24.0 mph 45% 0.00 in
09:55 42.7 °F 22.8 °F 30.22 in SSW 10.0 mph 24.0 mph 45% 0.00 in
10:00 42.8 °F 22.9 °F 30.22 in SW 14.0 mph 26.0 mph 45% 0.00 in
10:05 43.0 °F 23.1 °F 30.23 in SW 13.0 mph 26.0 mph 45% 0.00 in
10:10 43.2 °F 23.3 °F 30.22 in SSW 13.0 mph 23.0 mph 45% 0.00 in
10:15 43.3 °F 23.4 °F 30.22 in SSW 11.0 mph 22.0 mph 45% 0.00 in
10:20 43.5 °F 23.6 °F 30.22 in SSW 11.0 mph 23.0 mph 45% 0.00 in
10:25 43.7 °F 23.2 °F 30.22 in SSW 11.0 mph 23.0 mph 44% 0.00 in
10:30 43.8 °F 23.8 °F 30.21 in SW 12.0 mph 22.0 mph 45% 0.00 in
10:40 44.1 °F 23.6 °F 30.21 in SW 10.0 mph 23.0 mph 44% 0.00 in
10:45 44.3 °F 23.2 °F 30.21 in SW 15.0 mph 24.0 mph 43% 0.00 in
10:50 44.5 °F 23.4 °F 30.21 in SSW 12.0 mph 24.0 mph 43% 0.00 in
10:55 44.7 °F 23.6 °F 30.21 in SSW 12.0 mph 21.0 mph 43% 0.00 in
11:05 45.1 °F 23.9 °F 30.20 in SW 10.0 mph 23.0 mph 43% 0.00 in
11:10 45.1 °F 23.9 °F 30.20 in SSW 12.0 mph 23.0 mph 43% 0.00 in
11:15 45.2 °F 24.0 °F 30.20 in SSW 10.0 mph 23.0 mph 43% 0.00 in
11:20 45.7 °F 24.5 °F 30.20 in SSW 9.0 mph 23.0 mph 43% 0.00 in
11:25 45.9 °F 24.1 °F 30.20 in SSW 9.0 mph 19.0 mph 42% 0.00 in
11:30 46.1 °F 24.8 °F 30.19 in SSW 12.0 mph 22.0 mph 43% 0.00 in
11:40 46.3 °F 24.5 °F 30.19 in SSW 12.0 mph 25.0 mph 42% 0.00 in
11:45 46.9 °F 24.4 °F 30.19 in SSW 11.0 mph 22.0 mph 41% 0.00 in
11:50 47.1 °F 25.2 °F 30.19 in SW 7.0 mph 19.0 mph 42% 0.00 in
11:55 47.4 °F 25.5 °F 30.18 in SSW 10.0 mph 18.0 mph 42% 0.00 in
12:00 47.6 °F 25.1 °F 30.18 in SSW 10.0 mph 18.0 mph 41% 0.00 in
12:05 47.8 °F 24.6 °F 30.18 in SW 11.0 mph 18.0 mph 40% 0.00 in
12:10 48.1 °F 24.9 °F 30.17 in SW 10.0 mph 20.0 mph 40% 0.00 in
12:15 48.2 °F 25.6 °F 30.17 in SW 11.0 mph 20.0 mph 41% 0.00 in
12:20 48.2 °F 25.6 °F 30.17 in SSW 11.0 mph 22.0 mph 41% 0.00 in
12:25 48.3 °F 25.1 °F 30.17 in SW 10.0 mph 22.0 mph 40% 0.00 in
12:30 48.1 °F 24.9 °F 30.17 in SW 10.0 mph 19.0 mph 40% 0.00 in
12:35 48.0 °F 25.4 °F 30.17 in SW 9.0 mph 19.0 mph 41% 0.00 in
12:40 47.9 °F 25.3 °F 30.17 in SSW 6.0 mph 19.0 mph 41% 0.00 in
12:45 48.1 °F 25.5 °F 30.16 in SSW 7.0 mph 17.0 mph 41% 0.00 in
12:50 48.3 °F 25.7 °F 30.16 in SSW 6.0 mph 17.0 mph 41% 0.00 in
12:55 48.9 °F 26.8 °F 30.16 in SSW 6.0 mph 14.0 mph 42% 0.00 in
13:00 49.2 °F 25.9 °F 30.15 in SSW 9.0 mph 17.0 mph 40% 0.00 in
13:05 49.5 °F 25.6 °F 30.15 in SSW 11.0 mph 17.0 mph 39% 0.00 in
13:10 49.6 °F 25.7 °F 30.15 in SSW 10.0 mph 19.0 mph 39% 0.00 in
13:15 50.0 °F 26.0 °F 30.15 in SSW 10.0 mph 20.0 mph 39% 0.00 in
13:20 50.3 °F 25.7 °F 30.15 in SSW 10.0 mph 20.0 mph 38% 0.00 in
13:25 50.3 °F 26.3 °F 30.15 in SSW 9.0 mph 18.0 mph 39% 0.00 in
13:35 50.7 °F 26.0 °F 30.14 in SSW 10.0 mph 17.0 mph 38% 0.00 in
13:40 51.0 °F 26.3 °F 30.14 in SW 9.0 mph 18.0 mph 38% 0.00 in
13:45 51.4 °F 26.6 °F 30.13 in SSW 8.0 mph 18.0 mph 38% 0.00 in
13:50 51.8 °F 27.0 °F 30.13 in SSW 8.0 mph 18.0 mph 38% 0.00 in
13:55 52.1 °F 26.6 °F 30.13 in SSW 9.0 mph 17.0 mph 37% 0.00 in
14:00 52.1 °F 27.3 °F 30.13 in SSW 8.0 mph 17.0 mph 38% 0.00 in
14:05 52.3 °F 27.4 °F 30.13 in SSW 10.0 mph 16.0 mph 38% 0.00 in
14:10 52.5 °F 27.0 °F 30.12 in SSW 10.0 mph 18.0 mph 37% 0.00 in
14:15 52.8 °F 27.2 °F 30.12 in SSW 10.0 mph 18.0 mph 37% 0.00 in
14:20 52.7 °F 27.2 °F 30.12 in SSW 9.0 mph 18.0 mph 37% 0.00 in
14:25 52.8 °F 27.2 °F 30.12 in SSW 10.0 mph 20.0 mph 37% 0.00 in
14:30 52.8 °F 27.2 °F 30.12 in SSW 8.0 mph 20.0 mph 37% 0.00 in
14:35 52.5 °F 27.0 °F 30.11 in SSW 10.0 mph 16.0 mph 37% 0.00 in
14:40 52.8 °F 27.2 °F 30.12 in SSW 8.0 mph 18.0 mph 37% 0.00 in
14:45 53.0 °F 27.4 °F 30.12 in SSW 8.0 mph 18.0 mph 37% 0.00 in
14:55 52.8 °F 27.2 °F 30.11 in SSW 8.0 mph 18.0 mph 37% 0.00 in
15:00 52.8 °F 27.9 °F 30.11 in SSW 9.0 mph 18.0 mph 38% 0.00 in
15:05 53.4 °F 27.8 °F 30.11 in SSW 8.0 mph 16.0 mph 37% 0.00 in
15:10 53.7 °F 28.1 °F 30.11 in SW 7.0 mph 18.0 mph 37% 0.00 in
15:20 53.8 °F 28.1 °F 30.11 in SSW 9.0 mph 15.0 mph 37% 0.00 in
15:30 53.5 °F 27.2 °F 30.11 in SSW 10.0 mph 19.0 mph 36% 0.00 in
15:35 53.5 °F 27.9 °F 30.11 in SSW 8.0 mph 19.0 mph 37% 0.00 in
15:40 53.6 °F 27.3 °F 30.10 in SSW 8.0 mph 18.0 mph 36% 0.00 in
15:45 53.4 °F 27.8 °F 30.10 in SSW 9.0 mph 18.0 mph 37% 0.00 in
15:55 52.7 °F 27.8 °F 30.10 in SSW 9.0 mph 20.0 mph 38% 0.00 in
16:00 52.9 °F 27.3 °F 30.09 in SSW 9.0 mph 19.0 mph 37% 0.00 in
16:05 52.8 °F 27.9 °F 30.09 in SSW 5.0 mph 22.0 mph 38% 0.00 in
16:10 52.7 °F 27.8 °F 30.09 in SSW 7.0 mph 22.0 mph 38% 0.00 in
16:15 52.7 °F 27.8 °F 30.09 in SSW 7.0 mph 17.0 mph 38% 0.00 in
16:20 52.8 °F 27.9 °F 30.09 in SSW 8.0 mph 17.0 mph 38% 0.00 in
16:25 52.8 °F 27.9 °F 30.09 in SSW 8.0 mph 14.0 mph 38% 0.00 in
16:30 52.9 °F 28.0 °F 30.09 in SSW 8.0 mph 14.0 mph 38% 0.00 in
16:35 52.9 °F 27.3 °F 30.09 in SSW 7.0 mph 14.0 mph 37% 0.00 in
16:40 52.8 °F 27.2 °F 30.09 in SSW 9.0 mph 17.0 mph 37% 0.00 in
16:45 52.6 °F 27.7 °F 30.09 in SSW 8.0 mph 17.0 mph 38% 0.00 in
16:50 52.2 °F 27.4 °F 30.09 in SSW 7.0 mph 16.0 mph 38% 0.00 in
16:55 52.0 °F 27.8 °F 30.09 in SSW 6.0 mph 17.0 mph 39% 0.00 in
17:05 51.8 °F 27.6 °F 30.09 in SSW 6.0 mph 16.0 mph 39% 0.00 in
17:15 51.5 °F 27.4 °F 30.09 in SSW 8.0 mph 16.0 mph 39% 0.00 in
17:20 51.4 °F 27.3 °F 30.09 in SSW 7.0 mph 16.0 mph 39% 0.00 in
17:25 51.2 °F 27.1 °F 30.09 in SSW 9.0 mph 17.0 mph 39% 0.00 in
17:30 51.0 °F 27.5 °F 30.09 in SSW 8.0 mph 17.0 mph 40% 0.00 in
17:35 50.8 °F 27.3 °F 30.09 in SSW 8.0 mph 14.0 mph 40% 0.00 in
17:40 50.6 °F 27.2 °F 30.09 in SSW 8.0 mph 14.0 mph 40% 0.00 in
17:45 50.5 °F 27.7 °F 30.09 in SSW 5.0 mph 14.0 mph 41% 0.00 in
17:50 50.5 °F 27.7 °F 30.09 in SSW 9.0 mph 14.0 mph 41% 0.00 in
17:55 50.3 °F 27.5 °F 30.09 in SSW 6.0 mph 14.0 mph 41% 0.00 in
18:00 50.2 °F 28.0 °F 30.09 in SSW 6.0 mph 15.0 mph 42% 0.00 in
18:10 50.3 °F 27.5 °F 30.09 in SSW 9.0 mph 16.0 mph 41% 0.00 in
18:15 50.4 °F 27.6 °F 30.09 in SSW 8.0 mph 16.0 mph 41% 0.00 in
18:20 50.3 °F 28.1 °F 30.09 in South 7.0 mph 17.0 mph 42% 0.00 in
18:25 50.2 °F 28.0 °F 30.09 in SSW 8.0 mph 17.0 mph 42% 0.00 in
18:30 50.3 °F 28.1 °F 30.09 in SSW 9.0 mph 16.0 mph 42% 0.00 in
18:35 50.5 °F 27.7 °F 30.09 in SSW 9.0 mph 18.0 mph 41% 0.00 in
18:40 50.3 °F 28.1 °F 30.09 in SSW 8.0 mph 18.0 mph 42% 0.00 in
18:45 50.3 °F 28.1 °F 30.09 in SSW 8.0 mph 17.0 mph 42% 0.00 in
18:50 50.1 °F 28.5 °F 30.09 in SSW 7.0 mph 15.0 mph 43% 0.00 in
18:55 50.1 °F 28.5 °F 30.09 in SSW 10.0 mph 20.0 mph 43% 0.00 in
19:00 50.1 °F 28.5 °F 30.09 in SSW 9.0 mph 20.0 mph 43% 0.00 in
19:05 50.2 °F 28.6 °F 30.08 in SSW 10.0 mph 18.0 mph 43% 0.00 in
19:10 50.2 °F 28.6 °F 30.08 in SSW 8.0 mph 16.0 mph 43% 0.00 in
19:15 50.1 °F 29.0 °F 30.08 in SSW 8.0 mph 17.0 mph 44% 0.00 in
19:20 49.9 °F 28.9 °F 30.08 in SSW 8.0 mph 17.0 mph 44% 0.00 in
19:25 50.1 °F 29.0 °F 30.08 in SSW 9.0 mph 17.0 mph 44% 0.00 in
19:35 50.2 °F 29.1 °F 30.08 in SSW 12.0 mph 20.0 mph 44% 0.00 in
19:40 50.2 °F 29.1 °F 30.08 in SSW 8.0 mph 20.0 mph 44% 0.00 in
19:45 50.5 °F 29.4 °F 30.08 in SSW 10.0 mph 17.0 mph 44% 0.00 in
19:50 50.4 °F 29.3 °F 30.08 in SSW 8.0 mph 17.0 mph 44% 0.00 in
19:55 50.3 °F 29.8 °F 30.08 in SSW 8.0 mph 19.0 mph 45% 0.00 in
20:00 50.5 °F 29.4 °F 30.08 in SSW 9.0 mph 19.0 mph 44% 0.00 in
20:05 50.7 °F 29.6 °F 30.08 in SSW 9.0 mph 17.0 mph 44% 0.00 in
20:10 50.8 °F 29.7 °F 30.08 in SSW 7.0 mph 20.0 mph 44% 0.00 in
20:15 51.0 °F 29.9 °F 30.07 in SSW 10.0 mph 22.0 mph 44% 0.00 in
20:20 50.9 °F 29.8 °F 30.07 in SSW 7.0 mph 22.0 mph 44% 0.00 in
20:25 50.6 °F 30.0 °F 30.07 in SSW 8.0 mph 21.0 mph 45% 0.00 in
20:30 50.8 °F 29.7 °F 30.07 in SSW 12.0 mph 23.0 mph 44% 0.00 in
20:35 50.9 °F 29.8 °F 30.06 in SSW 10.0 mph 23.0 mph 44% 0.00 in
20:45 50.8 °F 29.7 °F 30.06 in SSW 9.0 mph 21.0 mph 44% 0.00 in
20:50 50.7 °F 30.1 °F 30.06 in SSW 11.0 mph 24.0 mph 45% 0.00 in
20:55 50.7 °F 30.1 °F 30.06 in SSW 9.0 mph 24.0 mph 45% 0.00 in
21:05 50.9 °F 29.8 °F 30.06 in SSW 9.0 mph 24.0 mph 44% 0.00 in
21:10 50.9 °F 30.3 °F 30.06 in SSW 10.0 mph 20.0 mph 45% 0.00 in
21:15 50.9 °F 29.8 °F 30.05 in SSW 11.0 mph 23.0 mph 44% 0.00 in
21:20 50.8 °F 30.2 °F 30.05 in SW 12.0 mph 23.0 mph 45% 0.00 in
21:30 50.8 °F 30.2 °F 30.05 in SW 13.0 mph 21.0 mph 45% 0.00 in
21:35 50.9 °F 29.8 °F 30.05 in SSW 8.0 mph 23.0 mph 44% 0.00 in
21:40 50.8 °F 30.2 °F 30.05 in SSW 10.0 mph 23.0 mph 45% 0.00 in
21:45 50.7 °F 30.1 °F 30.05 in SW 11.0 mph 23.0 mph 45% 0.00 in
21:55 50.6 °F 30.0 °F 30.05 in SSW 8.0 mph 24.0 mph 45% 0.00 in
22:00 50.6 °F 30.0 °F 30.05 in SSW 8.0 mph 18.0 mph 45% 0.00 in
22:05 50.4 °F 29.9 °F 30.05 in SSW 7.0 mph 20.0 mph 45% 0.00 in
22:10 50.5 °F 30.0 °F 30.05 in SSW 10.0 mph 20.0 mph 45% 0.00 in
22:15 50.4 °F 29.9 °F 30.05 in SSW 8.0 mph 17.0 mph 45% 0.00 in
22:20 50.4 °F 29.9 °F 30.05 in SSW 7.0 mph 16.0 mph 45% 0.00 in
22:30 50.4 °F 29.9 °F 30.05 in SSW 10.0 mph 21.0 mph 45% 0.00 in
22:40 50.3 °F 29.8 °F 30.05 in SSW 10.0 mph 18.0 mph 45% 0.00 in
22:45 50.4 °F 29.9 °F 30.05 in SSW 8.0 mph 18.0 mph 45% 0.00 in
22:50 50.3 °F 29.8 °F 30.05 in SSW 7.0 mph 19.0 mph 45% 0.00 in
22:55 50.2 °F 29.7 °F 30.05 in SSW 8.0 mph 19.0 mph 45% 0.00 in
23:00 50.3 °F 29.8 °F 30.05 in SSW 9.0 mph 19.0 mph 45% 0.00 in
23:05 50.1 °F 29.6 °F 30.05 in SSW 9.0 mph 19.0 mph 45% 0.00 in
23:10 50.3 °F 29.8 °F 30.05 in SSW 8.0 mph 19.0 mph 45% 0.00 in
23:15 50.4 °F 29.3 °F 30.05 in SSW 11.0 mph 19.0 mph 44% 0.00 in
23:20 50.3 °F 29.8 °F 30.05 in SSW 9.0 mph 19.0 mph 45% 0.00 in
23:25 50.1 °F 29.6 °F 30.05 in SSW 8.0 mph 19.0 mph 45% 0.00 in
23:35 49.9 °F 29.4 °F 30.05 in SSW 8.0 mph 17.0 mph 45% 0.00 in
23:40 50.1 °F 29.0 °F 30.05 in SSW 10.0 mph 17.0 mph 44% 0.00 in
23:45 50.0 °F 29.5 °F 30.05 in SSW 8.0 mph 18.0 mph 45% 0.00 in
23:50 49.9 °F 29.4 °F 30.04 in SSW 8.0 mph 18.0 mph 45% 0.00 in
Westford Weather
Compliments of Weather Underground

 
 
Current Radar Loop:

Copyright © WestfordWeather.net 2007-2014. All rights reserved.